Location: Stuttgart
(48.8069°N, 9.1544°E)
Time: 02:34:27
(UTC+02:00)

ISS - Pass Details

Date: 09 May 2021
Orbit: 417 x 422 km, 51.6° (Epoch: 15 June)

Event Time Altitude Azimuth Distance (km) Brightness Sun altitude
Exits shadow 03:34:58 19° 284° (WNW) 1,065 -1.9 -17.3°
Maximum altitude 03:37:08 51° 355° (N) 538 -3.0 -17.1°
Drops below altitude 10° 03:40:28 10° 73° (ENE) 1,511 -0.2 -16.8°
Sets 03:42:36 0° 79° (ENE) 2,377 0.8 -16.6°
